sat.trackr.live / text

‹ back to catalog

STARLINK-34370

NORAD 64309 · 2025-123U

PAYLOAD ACTIVE UNKNOWN

§ Identity

Operator
Country
US
Launch date
2025-06-08
Launch site
AFWTR
Launch vehicle
Mass (kg)
RCS (m²)

Purposes: comms

External: N2YO · Heavens-Above · Gunter

§ Orbital elements

Epoch: 2026-05-25T00:52:17.304096Z

Period
96.11 min
Inclination
70.0019°
Eccentricity
0.0002786
Mean motion
14.98326461 rev/d
Perigee alt
570.1 km
Apogee alt
574.0 km
Semi-major
6,950.2 km
B*
4.1500e-4
RAAN
1.9914°
Arg perigee
268.9824°
Mean anomaly
91.1015°
Rev number
5,305

§ Raw data

STARLINK-343701 64309U 25123U   26145.03631139  .00004862  00000+0  41500-3 0  99912 64309  70.0019   1.9914 0002786 268.9824  91.1015 14.98326461 53051

JSON: /api/v1/satellites/64309 · /tle

For live sub-satellite position, see the globe view (requires WebGL).

§ Visibility from observer

Set your observer location to see the next 7 days of passes ≥ 10°. The values pass through the URL so the page stays shareable.

No JS? Fill the form by hand. The geolocation button needs JavaScript.